GFSSGP_250_rhum_135.txt.gz
RH
65 74 59 55 40 62 75 69 49 64 86 51 40 47 45 33 35 36 37 32 20 20 42 53 39 22 18 27 39 36 38 38 40 40 36 28 28 28 29 30 29 28 24 24 29 31 35 32 29
61 60 50 50 46 35 26 62 59 44 33 30 32 32 36 46 45 46 41 26 21 18 41 65 41 27 24 29 33 39 43 38 39 37 56 60 50 45 42 46 45 36 35 26 27 28 39 42 30
83 71 60 50 45 37 26 30 28 27 31 30 24 24 30 43 39 43 35 29 23 20 40 80 42 28 23 24 42 42 39 42 42 43 49 49 60 56 51 43 44 47 38 36 35 32 32 56 45
42 52 54 53 45 43 37 33 32 34 36 29 31 30 55 56 59 56 37 31 27 29 47 89 58 43 32 32 27 23 38 47 64 81 74 65 60 63 56 49 52 48 45 36 38 37 41 44 60
83 78 60 61 52 44 46 44 40 54 46 36 36 48 54 63 80 62 47 41 39 41 51 92 71 61 48 33 30 23 34 59 62 61 66 72 82 78 66 70 74 63 58 59 44 39 36 48 64
96 97 92 76 66 68 61 56 49 41 37 36 32 28 34 88 69 56 50 47 36 40 57 69 79 76 63 49 39 34 30 27 30 51 48 60 70 50 45 48 54 57 53 49 42 46 50 54 62
77 71 82 75 60 58 53 46 44 47 41 39 38 33 64 97 64 52 52 46 38 35 31 51 66 66 66 65 60 59 49 43 36 30 38 39 44 35 33 46 52 58 59 52 44 49 55 65 66
47 48 54 68 60 49 45 44 48 53 50 46 47 42 39 56 55 61 59 51 42 39 61 69 68 88 94 92 73 74 61 67 64 38 32 36 30 39 40 42 53 34 47 58 45 38 52 82 96
34 38 52 71 59 50 44 55 57 66 88 76 66 59 47 42 67 76 69 64 58 53 47 70 88 77 86 80 75 79 63 57 52 58 34 36 41 45 40 29 29 32 30 44 41 32 36 88 78
45 36 57 61 54 42 46 60 70 76 100 98 95 81 62 62 66 75 63 56 57 60 59 62 71 61 65 78 82 86 75 79 73 49 42 30 32 38 40 38 46 45 34 31 54 54 36 83 100
54 41 68 60 46 43 44 59 63 77 82 79 86 69 68 86 88 57 52 54 50 68 88 74 76 91 100 99 82 68 55 51 45 54 59 66 87 97 100 100 85 77 64 67 76 47 32 77 100
50 46 69 59 32 32 31 35 40 52 48 50 60 60 68 97 74 64 56 58 47 45 61 82 68 71 94 97 92 76 84 64 57 52 45 88 98 93 94 99 97 100 93 95 89 95 89 38 96
73 44 61 89 77 46 32 34 34 30 25 26 29 59 66 61 59 56 53 57 54 62 60 52 58 70 62 74 77 63 60 46 43 39 44 51 96 100 98 94 93 93 100 82 67 93 95 99 91
71 63 57 62 84 60 36 30 33 32 36 33 27 26 62 87 76 64 54 50 56 54 54 54 61 65 76 77 74 64 51 52 66 84 56 69 71 71 72 81 80 71 73 81 72 59 60 56 75
79 74 52 39 50 50 57 47 37 34 42 48 45 39 43 73 84 74 63 58 56 50 49 50 57 63 61 60 64 63 79 83 95 100 98 94 96 100 83 48 49 53 74 79 64 95 100 100 99
94 90 68 45 36 31 46 51 33 43 41 36 32 38 44 38 51 80 81 73 66 60 58 54 59 58 57 59 58 62 72 86 100 100 100 100 74 64 56 48 47 61 78 92 64 100 100 100 100
99 77 58 45 36 36 42 41 42 33 42 58 55 48 52 59 53 44 51 66 76 75 76 75 72 99 97 92 88 92 100 100 100 100 92 82 77 83 70 62 50 34 42 63 78 99 100 100 100
98 92 86 68 47 47 49 58 76 72 64 45 52 58 78 74 61 48 49 51 51 48 45 47 60 88 100 100 100 100 100 100 100 100 100 100 98 97 95 73 58 36 31 29 45 58 80 99 100
79 77 73 65 46 44 64 56 53 60 53 70 58 75 84 67 59 51 45 48 54 50 42 45 76 100 92 77 81 82 80 100 98 100 100 100 100 100 100 100 86 48 36 35 28 28 31 31 47
47 63 69 58 61 50 53 51 42 74 90 68 65 64 65 66 59 55 50 52 54 46 37 42 57 95 100 100 100 94 84 65 60 56 54 76 96 100 100 100 100 97 61 34 32 31 28 25 25
58 56 71 82 70 44 35 39 58 96 91 69 71 60 63 60 57 55 59 64 67 74 69 65 58 52 59 65 78 94 97 97 99 100 95 84 70 59 58 54 52 61 62 65 50 32 30 33 30
50 55 62 79 97 86 82 97 100 99 89 93 100 98 85 71 67 63 66 74 89 98 100 100 100 100 97 92 80 71 69 66 59 69 73 74 66 59 58 62 68 79 69 66 67 66 39 29 30
71 46 74 79 100 97 100 100 100 86 85 71 90 99 96 96 100 100 97 86 79 81 86 77 73 79 79 67 64 58 51 50 47 43 40 40 38 38 36 35 34 34 34 34 32 33 40 40 32
78 84 60 75 83 84 98 97 97 84 81 86 84 85 82 85 85 91 91 90 93 96 94 86 88 86 76 73 78 74 71 65 53 53 46 37 34 30 28 27 27 27 25 24 24 22 21 22 24
100 100 90 98 92 97 100 87 95 75 76 74 70 65 71 88 94 96 91 91 83 81 71 63 54 53 56 58 55 50 49 45 39 36 32 27 23 19 17 16 15 15 14 14 12 11 12 12 13
86 100 100 100 100 100 100 99 90 68 78 84 85 74 69 70 71 71 78 87 69 57 60 60 52 48 46 43 40 42 38 35 33 25 20 17 16 17 17 17 16 15 13 11 10 9 9 8 8
73 87 87 79 94 78 86 98 96 86 88 81 83 68 64 66 56 56 59 60 54 53 48 55 57 49 48 48 49 46 36 27 20 19 21 19 14 12 12 13 12 12 11 10 9 8 8 8 8
91 93 84 83 82 70 66 68 73 66 64 69 84 73 68 58 54 55 57 58 68 65 68 60 52 43 52 50 43 32 27 25 25 20 13 11 12 14 14 14 12 11 12 12 10 10 10 8 7
92 88 100 95 83 76 70 69 86 82 82 72 63 55 51 54 48 57 69 63 58 62 61 56 46 51 53 43 32 32 32 31 16 14 15 17 20 20 21 17 15 19 20 22 21 20 18 14 10
96 100 85 92 89 79 74 65 73 68 65 60 47 48 54 47 62 64 60 62 62 59 58 56 52 46 43 38 38 37 32 23 21 18 22 23 26 27 26 28 25 24 26 30 33 28 27 22 19

GFSSGP_250_rhum_138.txt.gz
RH
62 62 52 49 48 59 46 23 56 39 32 65 58 38 25 22 32 29 35 36 41 35 37 24 21 46 85 85 53 41 21 17 26 31 34 35 34 37 42 38 36 37 38 42 35 32 24 27 31
49 48 46 46 46 43 36 34 44 47 36 32 30 26 22 35 33 36 42 53 45 40 38 30 27 41 74 100 70 45 36 22 21 25 32 36 40 43 42 52 50 45 36 34 37 38 36 30 30
79 69 65 61 47 45 48 44 42 38 39 32 31 26 32 34 27 30 40 57 56 52 42 34 32 35 72 100 91 33 32 28 32 28 26 33 45 56 67 56 51 51 45 40 35 35 37 38 37
55 31 53 65 92 85 100 84 74 47 44 46 46 35 41 37 34 37 50 52 67 74 57 46 37 35 52 74 100 70 45 40 31 26 21 19 29 57 83 86 83 76 63 48 48 54 54 47 42
31 27 46 72 96 83 98 95 85 76 68 62 54 41 39 39 37 34 40 42 72 88 60 51 35 30 35 57 96 97 75 68 52 33 29 34 30 40 54 48 68 78 81 76 66 60 61 58 57
33 36 45 49 54 43 43 67 71 61 54 51 43 35 40 35 43 47 38 64 97 78 58 40 42 36 33 47 78 99 85 81 79 50 46 41 38 30 25 37 33 52 50 48 50 56 56 54 51
38 40 47 62 55 40 34 38 46 61 58 59 47 46 37 60 48 39 58 78 59 49 47 52 48 41 38 57 100 100 100 92 86 80 74 58 53 52 36 29 26 29 28 31 34 42 48 61 64
39 43 52 76 59 46 38 32 51 56 43 45 55 56 67 76 60 61 56 50 38 39 45 59 59 57 47 42 64 90 100 100 100 100 93 88 71 68 57 36 29 24 24 26 25 26 24 23 42
42 31 44 52 70 56 48 36 40 57 51 48 45 64 61 100 99 80 66 58 54 41 67 62 36 40 50 38 47 65 76 83 83 97 98 77 70 60 49 34 28 27 27 25 25 45 38 27 29
53 34 65 100 92 76 50 41 53 53 45 45 60 51 56 74 82 100 83 64 58 60 76 59 41 37 41 52 55 46 46 85 97 60 61 59 53 42 40 30 27 27 48 74 66 57 66 55 53
55 92 82 81 91 78 67 48 46 41 35 34 29 30 51 52 42 36 45 48 47 55 67 73 56 46 41 35 39 70 94 90 100 100 100 100 100 98 99 82 91 100 100 100 100 88 78 62 50
51 50 67 69 96 76 48 46 59 96 75 64 34 37 34 35 35 33 23 26 42 52 51 49 49 46 46 44 42 58 60 60 64 99 100 99 61 91 91 81 93 100 100 100 97 98 99 82 90
48 43 40 43 45 48 64 59 47 42 41 54 40 36 35 29 34 38 33 31 30 32 65 66 59 53 46 44 41 38 35 40 54 60 71 79 62 53 57 46 49 86 100 100 97 87 100 94 89
46 40 43 56 60 98 100 86 67 55 39 46 44 43 35 29 27 25 32 36 37 34 66 93 88 80 68 59 56 46 43 45 46 47 49 49 44 41 40 40 33 36 43 56 67 82 65 97 100
73 62 77 70 56 47 62 81 78 65 46 52 35 30 34 30 34 45 30 28 32 38 54 98 100 97 92 85 80 71 61 59 67 74 57 59 50 42 47 46 49 42 36 36 57 64 63 97 97
71 65 50 61 76 85 89 92 76 64 66 52 42 32 31 43 52 32 26 35 38 66 73 69 52 68 77 76 72 76 76 85 97 100 98 75 74 59 62 70 62 58 44 28 28 38 65 99 100
100 100 100 100 100 85 70 84 94 88 75 57 57 50 40 37 43 38 49 49 40 72 75 64 54 44 44 51 56 66 68 73 85 97 100 100 100 99 85 78 78 56 47 35 25 26 35 61 99
100 95 79 59 59 57 60 62 62 64 61 60 48 43 47 39 38 38 65 50 40 50 75 71 64 48 41 47 49 50 46 47 66 98 100 100 100 100 100 100 80 61 47 36 33 20 25 33 74
79 74 58 49 56 53 55 54 74 74 74 66 60 74 59 63 65 68 70 52 44 46 60 61 58 54 45 42 41 43 39 37 58 76 82 99 100 99 100 100 100 100 100 100 75 27 18 22 47
74 70 72 61 63 89 79 61 72 65 67 65 78 83 86 100 100 85 72 70 74 67 51 45 45 46 47 45 44 40 38 35 34 47 78 96 100 100 100 99 88 83 80 80 81 67 31 20 22
90 89 85 86 99 87 83 78 78 88 70 86 70 95 81 88 97 97 78 80 66 76 79 78 72 64 64 65 70 86 87 80 58 48 39 42 49 56 67 79 92 100 91 81 57 49 42 23 26
64 75 95 100 99 95 100 87 99 98 85 65 72 72 79 88 90 100 100 88 76 89 93 84 80 89 94 85 74 70 71 100 100 100 100 95 65 51 39 38 43 47 63 79 82 67 44 34 20
98 94 91 100 100 100 100 100 100 100 100 88 87 98 83 100 90 96 100 96 72 59 72 75 70 74 87 87 84 87 85 79 63 51 55 50 51 56 51 51 46 35 30 27 26 27 29 32 30
100 100 100 100 100 100 100 100 95 100 95 96 80 78 90 92 86 87 86 82 86 63 60 57 58 56 59 64 67 71 70 69 68 62 54 50 47 47 51 50 44 42 38 36 31 25 23 23 24
80 67 86 86 98 95 98 88 94 80 72 82 71 75 75 71 62 65 65 72 70 62 54 55 56 48 47 52 50 51 50 49 46 47 47 44 42 39 41 38 34 32 30 26 23 19 17 16 15
70 88 67 60 61 70 62 80 70 69 68 69 62 53 54 56 56 56 58 56 54 51 49 57 52 48 46 45 49 51 49 47 47 54 59 54 47 37 31 27 26 24 17 15 14 12 11 9 10
85 81 85 76 65 66 52 67 86 96 99 73 69 64 60 66 74 62 64 62 55 60 58 50 42 42 47 49 46 40 37 46 51 47 41 38 36 28 20 20 19 19 18 16 16 14 12 10 10
67 78 100 94 74 74 77 93 100 78 89 79 82 89 74 67 56 42 52 55 55 56 51 41 44 45 43 44 35 37 50 53 48 46 37 29 27 23 22 22 16 12 12 11 10 10 9 9 8
78 66 78 96 100 97 79 78 93 70 70 69 78 70 73 72 66 68 63 60 55 51 54 51 47 43 38 35 42 52 59 45 41 38 34 31 32 26 18 12 12 14 16 17 16 14 15 13 11
100 100 100 100 100 100 86 91 100 67 71 75 58 64 55 59 100 95 56 50 43 51 60 60 52 46 44 44 52 54 51 45 42 43 40 36 31 20 17 21 22 24 24 26 26 25 20 17 17

GFSSGP_250_rhum_144.txt.gz
RH
99 96 80 55 38 46 57 31 25 18 15 14 14 32 40 56 63 50 45 56 35 55 48 31 36 30 29 44 52 52 51 38 33 33 26 22 31 56 53 48 29 25 25 22 26 37 34 47 45
100 100 98 78 61 90 37 29 22 23 19 17 15 14 22 52 62 58 73 67 71 52 34 34 31 31 34 52 56 61 70 61 42 44 29 29 44 80 54 63 55 36 33 23 22 24 36 40 48
100 100 100 97 75 63 40 29 31 32 23 21 20 18 27 30 29 43 44 42 60 73 46 43 35 39 40 47 53 66 77 83 68 51 32 31 35 63 95 82 64 55 39 37 33 25 28 30 36
99 100 100 95 86 74 74 58 52 46 32 28 22 22 33 34 31 27 24 27 44 52 48 54 48 46 43 46 40 59 96 93 70 45 43 39 34 40 91 84 74 58 50 50 42 34 21 22 27
81 78 82 98 94 82 72 68 76 59 49 34 28 35 43 45 35 25 21 31 42 62 73 66 55 45 46 46 44 70 92 71 60 66 57 44 36 45 77 99 92 74 58 62 53 52 38 24 26
62 66 81 92 58 69 99 100 93 75 53 45 37 54 59 52 35 28 32 45 43 40 44 42 44 52 54 63 77 66 48 44 60 69 60 54 48 45 53 83 87 83 68 67 71 63 50 38 34
57 76 96 73 64 99 100 100 96 72 64 52 42 56 65 37 41 34 43 44 41 39 37 30 55 83 89 77 62 57 50 50 60 61 71 52 54 52 44 62 59 51 56 55 60 66 53 34 26
78 89 100 90 98 100 100 97 77 73 71 63 47 58 48 37 37 27 48 57 50 34 31 37 58 48 46 77 76 69 70 74 73 95 94 78 81 97 100 100 100 90 91 75 91 60 64 43 67
100 100 100 100 100 95 98 96 92 100 88 57 45 44 60 41 37 40 46 62 70 58 43 41 33 32 30 33 39 38 32 35 42 47 53 50 56 84 88 82 100 100 100 99 100 100 74 73 94
52 89 100 100 100 100 98 95 100 100 84 59 49 38 49 35 55 74 63 56 70 65 50 43 36 32 26 26 23 20 18 22 26 29 45 58 66 86 100 98 100 100 70 87 83 76 59 78 89
38 46 53 100 100 100 99 100 100 100 77 49 51 68 59 57 58 48 76 71 63 58 47 44 40 38 36 30 28 24 20 19 18 18 24 46 58 94 100 72 94 100 89 68 72 91 98 100 100
29 51 75 100 100 100 100 100 93 83 64 64 89 86 62 44 40 48 56 81 70 63 57 54 52 44 34 32 33 31 30 28 25 21 18 24 47 68 100 100 100 99 89 75 83 75 84 88 100
54 84 80 100 100 92 84 94 92 92 100 100 82 62 70 94 76 69 76 81 83 76 68 64 59 50 44 40 39 36 33 29 27 27 22 21 32 58 78 83 92 98 97 65 57 78 66 70 70
99 100 100 100 97 96 69 86 100 90 95 97 100 100 98 78 58 42 52 60 61 64 79 81 73 63 56 47 42 37 32 33 30 26 24 22 30 59 73 88 83 76 69 54 34 33 44 50 43
100 100 100 98 100 100 77 97 99 88 70 89 100 96 69 54 78 84 74 64 48 48 54 62 61 56 52 49 49 51 50 56 47 41 32 20 24 44 48 55 71 75 83 68 48 32 29 30 32
70 62 61 62 79 81 65 66 74 100 100 96 55 39 34 42 52 63 67 64 55 62 60 62 59 62 60 53 50 55 60 56 49 39 38 33 22 30 50 49 45 44 51 63 63 54 34 25 26
64 62 41 48 50 65 40 44 43 48 68 55 55 41 43 50 48 59 82 87 77 77 75 69 64 62 55 57 66 65 61 73 70 60 46 42 37 27 32 42 42 39 35 33 40 46 50 36 27
45 52 59 57 52 38 40 49 49 88 100 100 82 80 56 64 68 76 92 100 100 97 95 97 94 85 90 94 88 88 83 79 74 83 83 75 54 40 32 31 29 34 35 35 33 34 31 43 43
58 42 56 66 60 37 37 48 75 85 96 71 69 71 55 48 77 96 100 99 99 94 100 97 100 100 97 96 97 95 90 89 85 90 98 98 90 71 55 44 35 32 33 32 34 34 44 41 38
46 56 59 71 74 52 68 75 82 100 85 88 66 47 65 98 100 94 82 82 82 95 90 84 71 84 94 88 81 80 76 67 79 92 88 95 98 94 82 69 52 42 36 40 38 34 32 31 39
37 41 38 42 58 78 71 64 73 76 99 94 69 75 74 62 68 68 47 51 50 82 98 88 85 88 84 82 85 87 59 56 56 51 52 56 59 64 79 86 90 66 49 44 44 46 42 35 28
36 32 32 31 34 41 59 41 65 100 100 94 84 80 96 97 74 44 40 58 48 65 85 86 81 82 83 77 59 47 41 42 43 43 46 48 47 46 50 50 51 54 53 54 48 44 50 50 41
50 42 40 38 36 34 36 48 76 94 72 99 100 100 94 82 58 38 44 77 52 43 41 53 60 56 56 50 44 42 46 47 49 42 37 36 39 36 39 47 49 53 51 48 46 48 43 43 50
68 63 54 61 78 65 76 79 51 100 95 87 70 60 69 68 47 36 44 42 52 86 85 70 50 46 53 58 47 41 50 57 52 45 39 36 36 38 40 45 43 42 42 44 48 48 45 45 40
89 99 93 70 73 100 100 100 100 100 100 100 100 86 74 48 38 50 72 100 100 98 94 97 82 75 64 54 54 70 67 58 41 30 34 38 46 52 48 44 41 40 42 38 39 37 34 31 28
98 95 81 80 86 86 100 99 97 99 100 94 73 72 64 38 88 100 100 100 100 100 77 83 87 65 74 77 71 59 43 33 25 34 50 56 57 54 47 38 37 39 36 31 28 25 23 21 21
88 56 84 69 55 60 68 72 74 54 54 56 41 38 39 74 100 100 100 100 100 94 92 99 82 92 78 58 50 40 28 25 28 37 52 53 45 44 41 40 40 37 31 28 26 24 21 18 16
77 80 84 81 85 72 75 73 51 56 55 51 66 90 100 100 100 100 88 92 80 88 87 86 86 65 64 56 38 29 24 22 28 40 41 47 50 55 46 37 39 34 32 34 31 28 26 24 22
92 94 88 75 85 81 89 64 73 93 100 100 100 100 100 96 100 100 100 100 85 92 95 81 66 64 49 34 28 25 22 24 28 44 58 65 56 54 44 33 34 32 38 39 37 34 29 26 24
92 83 98 100 88 74 58 99 100 100 98 100 100 100 100 99 100 92 100 77 79 65 40 27 26 38 46 45 34 26 23 29 32 34 44 42 54 49 36 33 34 34 40 42 38 35 32 28 24

GFSSGP_250_rhum_147.txt.gz
RH
68 92 76 58 70 80 70 67 70 87 47 30 32 29 27 24 24 24 19 36 34 27 40 47 55 68 62 52 45 43 42 41 38 36 59 62 38 40 30 28 41 59 52 51 34 32 22 30 26
93 79 59 55 53 70 90 97 100 92 65 57 46 38 32 30 27 25 39 54 84 60 61 53 81 77 53 47 48 37 41 41 39 37 52 64 67 56 36 34 31 57 69 57 46 37 38 34 25
100 100 93 70 60 48 62 100 100 100 98 69 58 60 46 44 32 29 29 45 44 32 25 30 39 53 48 44 46 42 41 47 55 55 78 76 77 52 44 37 38 70 88 78 54 49 47 41 38
36 51 80 76 60 63 54 60 70 80 78 56 89 78 59 49 41 34 29 31 29 30 27 27 32 35 33 38 46 49 58 71 63 62 65 58 45 37 47 48 41 78 100 100 87 57 49 53 46
42 37 37 53 66 55 58 68 97 92 79 67 96 77 76 67 50 39 46 50 34 27 31 26 28 31 32 36 60 67 72 75 83 77 61 46 34 34 50 52 47 51 81 100 99 84 62 55 40
67 59 32 21 38 73 65 72 72 95 95 91 91 80 89 77 56 53 63 48 38 22 25 39 32 29 27 24 41 71 85 96 85 68 63 55 43 38 41 46 46 54 46 68 82 87 79 52 36
66 61 34 22 30 67 62 84 100 100 78 82 98 100 100 88 67 65 50 56 32 27 34 46 52 35 31 28 28 31 37 36 77 77 58 51 57 54 63 70 59 72 100 99 97 90 94 75 61
73 66 39 27 36 46 79 85 99 100 92 87 85 100 100 90 68 66 59 44 43 52 57 54 58 56 51 40 36 32 32 29 27 38 46 28 35 39 44 40 48 56 80 88 100 100 100 100 94
94 69 45 28 25 34 54 87 90 96 100 100 100 100 100 85 78 63 43 40 59 67 68 71 64 64 64 46 39 36 35 31 29 27 26 26 25 28 31 33 46 56 60 56 55 100 100 98 100
100 79 47 32 28 29 27 40 66 94 100 100 100 100 100 74 55 60 71 73 52 44 54 63 74 72 66 57 48 43 40 39 35 31 28 24 22 21 21 22 34 54 99 73 55 55 82 68 84
100 72 54 39 24 26 25 42 64 100 100 100 100 99 76 66 67 77 70 61 75 68 61 62 59 69 70 58 58 63 60 50 40 36 33 31 30 30 27 27 22 34 76 72 71 64 74 97 100
100 87 43 34 36 46 45 88 98 97 76 89 100 100 100 100 94 80 98 96 83 74 55 45 49 74 86 81 76 75 71 60 52 44 39 35 34 31 28 25 22 21 41 80 100 68 38 74 74
92 76 53 48 63 65 98 97 99 86 65 99 100 100 100 100 91 100 77 63 53 44 45 58 55 54 46 42 59 83 86 78 69 60 51 46 42 34 35 31 26 21 24 39 90 100 96 75 66
100 100 86 72 92 99 100 95 100 80 82 66 100 99 89 84 100 88 69 55 42 43 43 45 53 46 46 53 48 44 41 39 46 45 38 41 40 38 46 41 34 32 22 25 39 71 94 97 100
92 100 76 67 80 92 91 68 58 54 71 50 49 84 99 100 71 47 81 59 70 63 58 52 40 33 40 44 46 43 36 36 38 44 47 44 37 33 31 32 33 30 27 26 38 47 56 63 67
51 55 67 67 60 57 60 68 51 56 55 48 36 37 41 45 67 100 100 77 69 58 52 54 49 52 57 56 55 51 51 53 58 50 46 52 44 42 40 41 38 32 29 27 31 54 54 56 52
44 39 53 60 60 57 49 64 66 55 57 49 54 62 71 89 100 100 100 94 94 82 79 71 67 70 61 62 82 86 84 89 81 81 74 77 85 74 71 64 55 50 45 31 31 31 44 52 49
43 49 37 42 44 46 51 51 56 61 73 85 86 96 93 84 94 98 100 100 100 100 100 100 100 88 68 72 72 88 100 98 95 100 100 100 94 85 79 72 62 63 62 63 44 37 34 34 40
44 38 44 42 40 34 34 44 46 48 47 55 66 71 78 70 83 100 100 100 100 100 100 100 100 89 49 40 75 63 83 100 100 100 100 100 91 82 70 61 59 58 54 58 68 58 39 35 37
45 37 41 43 43 41 46 37 33 34 37 35 42 53 57 56 92 100 100 100 100 96 90 97 73 72 56 35 43 48 47 53 76 89 78 91 98 96 83 53 46 45 46 49 50 53 51 39 39
54 58 72 58 43 33 34 36 40 38 35 34 31 32 33 35 43 58 76 75 78 81 67 69 52 59 46 32 48 69 79 84 71 63 63 65 62 59 53 48 43 41 42 41 47 48 44 43 38
78 77 78 86 80 70 58 35 48 55 56 43 42 42 42 49 54 62 65 68 66 70 60 56 60 51 42 35 48 78 74 79 74 45 54 51 54 54 42 39 34 34 36 40 38 39 44 43 42
100 99 84 74 80 63 52 53 63 62 46 52 71 75 75 76 77 78 98 100 100 85 70 62 53 44 64 100 100 95 82 98 79 48 46 46 46 45 43 39 34 31 33 33 34 35 35 39 36
100 100 100 100 77 54 61 64 43 82 60 66 68 62 70 72 73 88 88 71 64 61 47 47 59 80 96 100 93 75 84 77 61 58 54 54 48 40 40 39 34 33 30 28 31 38 39 37 34
100 100 94 80 70 68 73 59 55 83 93 90 76 60 56 47 52 59 66 51 57 55 55 95 100 100 100 100 91 80 62 67 71 86 61 57 52 50 48 36 29 28 30 35 36 40 42 41 44
98 85 75 79 80 78 72 75 87 76 94 88 88 72 76 95 63 55 62 55 91 100 99 100 100 88 74 84 99 74 64 73 63 57 48 41 31 35 35 33 33 41 42 44 50 47 43 48 50
99 94 100 100 92 83 78 66 67 76 76 76 69 64 70 73 61 56 92 100 100 100 100 100 100 79 96 96 80 62 60 62 33 30 26 25 28 35 43 46 53 43 38 35 35 29 30 37 39
100 100 98 80 70 74 64 73 72 71 69 62 56 70 85 64 88 100 89 100 100 100 100 71 92 99 100 75 82 86 68 63 41 36 31 36 33 32 44 54 67 59 37 31 28 20 21 28 33
100 100 92 71 54 65 62 62 64 60 65 70 84 68 84 100 100 100 100 100 100 100 95 100 93 93 78 74 64 64 36 32 30 26 22 25 30 33 47 46 53 48 41 40 26 25 28 30 32
74 67 73 78 72 64 70 76 78 88 100 100 100 93 84 89 100 100 100 100 100 100 95 88 81 74 67 45 31 31 40 32 31 30 36 32 35 36 36 37 34 34 32 27 25 28 28 28 31